Location: Cormont
(50.5693°N, 1.7416°E)
Time: 00:22:58
(UTC+00:00)

STARLINK-41 - Pass Details

Date: 21 October 2019
Orbit: 548 x 551 km, 53.0° (Epoch: 20 November)

Event Time Altitude Azimuth Distance (km) Brightness Sun altitude
Rises 18:46:03 0° 282° (WNW) 2,719 8.8 -19.2°
Reaches altitude 10° 18:48:18 10° 285° (WNW) 1,825 7.5 -19.5°
Maximum altitude 18:52:25 64° 7° (N) 611 3.7 -20.2°
Enters shadow 18:53:08 53° 57° (ENE) 679 3.7 -20.3°
